Time,TemperatureF,DewpointF,PressureIn,WindDirection,WindDirectionDegrees,WindSpeedMPH,WindSpeedGustMPH,Humidity,HourlyPrecipIn,Conditions,Clouds,dailyrainin,SoftwareType,DateUTC
2013-02-04 00:03:00,40.6,39.0,30.18,ENE,66,0.0,4.0,94,0.00,,,0.01,meteohub,2013-02-04 08:03:00,
2013-02-04 00:08:00,40.8,39.2,30.18,ENE,66,0.0,4.0,94,0.00,,,0.00,meteohub,2013-02-04 08:08:00,
2013-02-04 00:13:00,40.3,38.7,30.18,ENE,66,0.0,3.0,94,0.00,,,0.00,meteohub,2013-02-04 08:13:00,
2013-02-04 00:18:00,40.3,39.0,30.18,ENE,66,2.0,2.0,95,0.00,,,0.00,meteohub,2013-02-04 08:18:00,
2013-02-04 00:23:00,40.3,39.0,30.18,ENE,66,2.0,3.0,95,0.00,,,0.00,meteohub,2013-02-04 08:23:00,
2013-02-04 00:28:00,40.1,38.8,30.18,ENE,66,0.0,3.0,95,0.00,,,0.00,meteohub,2013-02-04 08:28:00,
2013-02-04 00:33:00,39.7,38.5,30.18,ENE,66,2.0,3.0,95,0.00,,,0.00,meteohub,2013-02-04 08:33:00,
2013-02-04 00:38:00,39.7,38.5,30.18,ENE,66,2.0,3.0,95,0.00,,,0.00,meteohub,2013-02-04 08:38:00,
2013-02-04 00:43:00,39.9,38.7,30.18,ENE,66,1.0,3.0,95,0.00,,,0.00,meteohub,2013-02-04 08:43:00,
2013-02-04 00:48:00,40.3,39.2,30.18,ENE,66,3.0,3.0,96,0.00,,,0.00,meteohub,2013-02-04 08:48:00,
2013-02-04 00:53:00,40.3,39.0,30.18,ENE,66,3.0,4.0,95,0.00,,,0.00,meteohub,2013-02-04 08:53:00,
2013-02-04 00:58:00,39.7,38.1,30.17,ENE,66,2.0,4.0,94,0.00,,,0.00,meteohub,2013-02-04 08:58:00,
2013-02-04 01:03:00,39.6,38.3,30.17,ENE,66,2.0,4.0,95,0.00,,,0.00,meteohub,2013-02-04 09:03:00,
2013-02-04 01:08:00,39.2,37.6,30.17,ENE,66,0.0,4.0,94,0.00,,,0.00,meteohub,2013-02-04 09:08:00,
2013-02-04 01:13:00,39.0,37.8,30.18,ENE,66,1.0,3.0,95,0.00,,,0.00,meteohub,2013-02-04 09:13:00,
2013-02-04 01:18:00,39.2,37.9,30.18,ENE,66,2.0,3.0,95,0.00,,,0.00,meteohub,2013-02-04 09:18:00,
2013-02-04 01:23:00,38.8,37.6,30.18,ENE,66,1.0,3.0,95,0.00,,,0.00,meteohub,2013-02-04 09:23:00,
2013-02-04 01:28:00,38.3,37.0,30.17,ENE,66,0.0,3.0,95,0.00,,,0.00,meteohub,2013-02-04 09:28:00,
2013-02-04 01:33:00,37.2,35.6,30.18,ENE,66,0.0,3.0,94,0.00,,,0.00,meteohub,2013-02-04 09:33:00,
2013-02-04 01:38:00,37.6,36.5,30.18,ENE,66,0.0,3.0,96,0.00,,,0.00,meteohub,2013-02-04 09:38:00,
2013-02-04 01:43:00,38.8,38.1,30.18,ENE,66,0.0,3.0,97,0.00,,,0.00,meteohub,2013-02-04 09:43:00,
2013-02-04 01:48:00,39.7,38.7,30.18,ENE,66,3.0,0.0,96,0.00,,,0.00,meteohub,2013-02-04 09:48:00,
2013-02-04 01:53:00,39.7,38.1,30.18,ENE,66,4.0,4.0,94,0.00,,,0.00,meteohub,2013-02-04 09:53:00,
2013-02-04 01:58:00,39.2,37.4,30.18,ENE,66,3.0,5.0,93,0.00,,,0.00,meteohub,2013-02-04 09:58:00,
2013-02-04 02:03:00,39.2,37.6,30.18,ENE,66,0.0,5.0,94,0.00,,,0.00,meteohub,2013-02-04 10:03:00,
2013-02-04 02:08:00,39.0,37.4,30.18,ENE,66,0.0,5.0,94,0.00,,,0.00,meteohub,2013-02-04 10:08:00,
2013-02-04 02:13:00,39.2,37.6,30.18,ENE,66,0.0,4.0,94,0.00,,,0.00,meteohub,2013-02-04 10:13:00,
2013-02-04 02:18:00,39.6,37.9,30.18,ENE,66,2.0,2.0,94,0.00,,,0.00,meteohub,2013-02-04 10:18:00,
2013-02-04 02:23:00,39.4,37.8,30.18,ENE,66,1.0,2.0,94,0.00,,,0.00,meteohub,2013-02-04 10:23:00,
2013-02-04 02:28:00,39.7,38.1,30.18,ENE,66,2.0,3.0,94,0.00,,,0.00,meteohub,2013-02-04 10:28:00,
2013-02-04 02:33:00,39.6,37.9,30.18,ENE,66,2.0,4.0,94,0.00,,,0.00,meteohub,2013-02-04 10:33:00,
2013-02-04 02:38:00,39.6,37.8,30.18,ENE,66,3.0,4.0,93,0.00,,,0.00,meteohub,2013-02-04 10:38:00,
2013-02-04 02:43:00,39.0,37.2,30.17,ENE,66,3.0,4.0,93,0.00,,,0.00,meteohub,2013-02-04 10:43:00,
2013-02-04 02:48:00,39.4,37.8,30.17,ENE,66,1.0,4.0,94,0.00,,,0.00,meteohub,2013-02-04 10:48:00,
2013-02-04 02:53:00,38.8,37.2,30.17,ENE,66,0.0,4.0,94,0.00,,,0.00,meteohub,2013-02-04 10:53:00,
2013-02-04 02:58:00,38.8,37.6,30.17,ENE,66,0.0,4.0,95,0.00,,,0.00,meteohub,2013-02-04 10:58:00,
2013-02-04 03:03:00,39.4,38.1,30.17,ENE,66,0.0,4.0,95,0.00,,,0.00,meteohub,2013-02-04 11:03:00,
2013-02-04 03:09:00,39.2,37.9,30.17,ENE,66,0.0,1.0,95,0.00,,,0.00,meteohub,2013-02-04 11:09:00,
2013-02-04 03:14:00,39.6,38.3,30.17,ENE,66,0.0,1.0,95,0.00,,,0.00,meteohub,2013-02-04 11:14:00,
2013-02-04 03:19:00,39.2,37.9,30.16,ENE,66,2.0,2.0,95,0.00,,,0.00,meteohub,2013-02-04 11:19:00,
2013-02-04 03:24:00,39.2,37.6,30.16,ENE,66,1.0,3.0,94,0.00,,,0.00,meteohub,2013-02-04 11:24:00,
2013-02-04 03:29:00,38.8,37.2,30.16,ENE,66,1.0,3.0,94,0.00,,,0.00,meteohub,2013-02-04 11:29:00,
2013-02-04 03:34:00,38.8,37.2,30.15,ENE,66,1.0,3.0,94,0.00,,,0.00,meteohub,2013-02-04 11:34:00,
2013-02-04 03:39:00,38.8,37.2,30.15,ENE,66,0.0,3.0,94,0.00,,,0.00,meteohub,2013-02-04 11:39:00,
2013-02-04 03:44:00,38.1,36.5,30.15,ENE,66,0.0,3.0,94,0.00,,,0.00,meteohub,2013-02-04 11:44:00,
2013-02-04 03:49:00,38.1,36.9,30.15,ENE,66,1.0,3.0,95,0.00,,,0.00,meteohub,2013-02-04 11:49:00,
2013-02-04 03:54:00,38.3,37.2,30.15,ENE,66,0.0,2.0,96,0.00,,,0.00,meteohub,2013-02-04 11:54:00,
2013-02-04 03:59:00,38.1,36.9,30.15,ENE,66,1.0,2.0,95,0.00,,,0.00,meteohub,2013-02-04 11:59:00,
2013-02-04 04:04:00,37.8,36.5,30.15,ENE,66,0.0,2.0,95,0.00,,,0.00,meteohub,2013-02-04 12:04:00,
2013-02-04 04:09:00,37.8,36.5,30.15,ENE,66,0.0,2.0,95,0.00,,,0.00,meteohub,2013-02-04 12:09:00,
2013-02-04 04:14:00,37.8,36.5,30.15,ENE,66,0.0,2.0,95,0.00,,,0.00,meteohub,2013-02-04 12:14:00,
2013-02-04 04:19:00,37.9,36.9,30.15,ENE,66,2.0,2.0,96,0.00,,,0.00,meteohub,2013-02-04 12:19:00,
2013-02-04 04:24:00,38.1,36.9,30.15,ENE,66,1.0,3.0,95,0.00,,,0.00,meteohub,2013-02-04 12:24:00,
2013-02-04 04:29:00,37.9,36.7,30.15,ENE,66,0.0,3.0,95,0.00,,,0.00,meteohub,2013-02-04 12:29:00,
2013-02-04 04:34:00,37.9,36.7,30.15,ENE,66,1.0,3.0,95,0.00,,,0.00,meteohub,2013-02-04 12:34:00,
2013-02-04 04:39:00,37.8,36.5,30.15,ENE,66,2.0,2.0,95,0.00,,,0.00,meteohub,2013-02-04 12:39:00,
2013-02-04 04:44:00,37.6,36.3,30.15,ENE,66,0.0,3.0,95,0.00,,,0.00,meteohub,2013-02-04 12:44:00,
2013-02-04 04:49:00,37.0,35.8,30.15,ENE,66,0.0,3.0,95,0.00,,,0.00,meteohub,2013-02-04 12:49:00,
2013-02-04 04:54:00,37.2,36.1,30.15,ENE,66,1.0,3.0,96,0.00,,,0.00,meteohub,2013-02-04 12:54:00,
2013-02-04 04:59:00,37.8,36.5,30.15,ENE,66,0.0,3.0,95,0.00,,,0.00,meteohub,2013-02-04 12:59:00,
2013-02-04 05:04:00,37.2,36.0,30.15,ENE,66,0.0,2.0,95,0.00,,,0.00,meteohub,2013-02-04 13:04:00,
2013-02-04 05:09:00,37.8,36.5,30.16,ENE,66,0.0,2.0,95,0.00,,,0.00,meteohub,2013-02-04 13:09:00,
2013-02-04 05:14:00,38.5,37.2,30.16,ENE,66,0.0,2.0,95,0.00,,,0.00,meteohub,2013-02-04 13:14:00,
2013-02-04 05:19:00,38.3,36.7,30.16,ENE,66,1.0,1.0,94,0.00,,,0.00,meteohub,2013-02-04 13:19:00,
2013-02-04 05:24:00,37.9,36.3,30.16,ENE,66,0.0,2.0,94,0.00,,,0.00,meteohub,2013-02-04 13:24:00,
2013-02-04 05:29:00,37.8,36.1,30.16,ENE,66,0.0,2.0,94,0.00,,,0.00,meteohub,2013-02-04 13:29:00,
2013-02-04 05:34:00,37.9,36.3,30.16,ENE,66,0.0,2.0,94,0.00,,,0.00,meteohub,2013-02-04 13:34:00,
2013-02-04 05:39:00,37.9,36.3,30.16,ENE,66,1.0,2.0,94,0.00,,,0.00,meteohub,2013-02-04 13:39:00,
2013-02-04 05:44:00,38.5,37.2,30.16,ENE,66,0.0,2.0,95,0.00,,,0.00,meteohub,2013-02-04 13:44:00,
2013-02-04 05:49:00,38.1,36.5,30.15,ENE,66,1.0,2.0,94,0.00,,,0.00,meteohub,2013-02-04 13:49:00,
2013-02-04 05:54:00,38.3,37.0,30.15,ENE,66,0.0,2.0,95,0.00,,,0.00,meteohub,2013-02-04 13:54:00,
2013-02-04 05:59:00,38.5,36.9,30.15,ENE,66,0.0,2.0,94,0.00,,,0.00,meteohub,2013-02-04 13:59:00,
2013-02-04 06:04:00,38.5,36.9,30.16,ENE,66,2.0,2.0,94,0.00,,,0.00,meteohub,2013-02-04 14:04:00,
2013-02-04 06:09:00,38.7,37.0,30.16,ENE,66,3.0,3.0,94,0.00,,,0.00,meteohub,2013-02-04 14:09:00,
2013-02-04 06:14:00,38.7,37.0,30.16,ENE,66,0.0,3.0,94,0.00,,,0.00,meteohub,2013-02-04 14:14:00,
2013-02-04 06:19:00,38.5,36.7,30.16,ENE,66,0.0,3.0,93,0.00,,,0.00,meteohub,2013-02-04 14:19:00,
2013-02-04 06:24:00,37.8,36.1,30.16,ENE,66,0.0,3.0,94,0.00,,,0.00,meteohub,2013-02-04 14:24:00,
2013-02-04 06:29:00,37.9,36.7,30.16,ENE,66,2.0,2.0,95,0.00,,,0.00,meteohub,2013-02-04 14:29:00,
2013-02-04 06:34:00,38.3,37.0,30.16,ENE,66,0.0,2.0,95,0.00,,,0.00,meteohub,2013-02-04 14:34:00,
2013-02-04 06:39:00,38.1,36.5,30.16,ENE,66,0.0,2.0,94,0.00,,,0.00,meteohub,2013-02-04 14:39:00,
2013-02-04 06:44:00,38.3,36.7,30.16,ENE,66,0.0,2.0,94,0.00,,,0.00,meteohub,2013-02-04 14:44:00,
2013-02-04 06:49:00,39.0,37.4,30.16,ENE,66,0.0,2.0,94,0.00,,,0.00,meteohub,2013-02-04 14:49:00,
2013-02-04 06:54:00,39.2,37.4,30.16,ENE,66,0.0,0.0,93,0.00,,,0.00,meteohub,2013-02-04 14:54:00,
2013-02-04 06:59:00,38.8,37.0,30.16,ENE,66,0.0,0.0,93,0.00,,,0.00,meteohub,2013-02-04 14:59:00,
2013-02-04 07:04:00,38.7,36.9,30.17,ENE,66,0.0,0.0,93,0.00,,,0.00,meteohub,2013-02-04 15:04:00,
2013-02-04 07:09:00,38.5,36.7,30.17,ENE,66,1.0,1.0,93,0.00,,,0.00,meteohub,2013-02-04 15:09:00,
2013-02-04 07:14:00,38.1,36.5,30.17,ENE,66,1.0,2.0,94,0.00,,,0.00,meteohub,2013-02-04 15:14:00,
2013-02-04 07:19:00,37.9,36.3,30.17,ENE,66,0.0,2.0,94,0.00,,,0.00,meteohub,2013-02-04 15:19:00,
2013-02-04 07:24:00,37.9,36.3,30.17,ENE,66,0.0,2.0,94,0.00,,,0.00,meteohub,2013-02-04 15:24:00,
2013-02-04 07:29:00,37.8,36.1,30.17,ENE,66,1.0,2.0,94,0.00,,,0.00,meteohub,2013-02-04 15:29:00,
2013-02-04 07:34:00,38.1,36.9,30.17,ENE,66,2.0,2.0,95,0.00,,,0.00,meteohub,2013-02-04 15:34:00,
2013-02-04 07:39:00,38.1,36.5,30.17,ENE,66,2.0,2.0,94,0.00,,,0.00,meteohub,2013-02-04 15:39:00,
2013-02-04 07:44:00,37.9,36.3,30.17,ENE,66,0.0,3.0,94,0.00,,,0.00,meteohub,2013-02-04 15:44:00,
2013-02-04 07:49:00,37.9,36.7,30.17,ENE,66,0.0,3.0,95,0.00,,,0.00,meteohub,2013-02-04 15:49:00,
2013-02-04 07:54:00,37.9,36.7,30.17,ENE,66,0.0,3.0,95,0.00,,,0.00,meteohub,2013-02-04 15:54:00,
2013-02-04 07:59:00,38.5,37.2,30.17,ENE,66,0.0,2.0,95,0.00,,,0.00,meteohub,2013-02-04 15:59:00,
2013-02-04 08:04:00,39.0,37.4,30.17,ENE,66,0.0,1.0,94,0.00,,,0.00,meteohub,2013-02-04 16:04:00,
2013-02-04 08:09:00,39.6,37.9,30.17,ENE,66,0.0,1.0,94,0.00,,,0.00,meteohub,2013-02-04 16:09:00,
2013-02-04 08:14:00,39.7,37.9,30.17,ENE,66,0.0,0.0,93,0.00,,,0.00,meteohub,2013-02-04 16:14:00,
2013-02-04 08:19:00,39.9,37.8,30.18,ENE,66,0.0,0.0,92,0.00,,,0.00,meteohub,2013-02-04 16:19:00,
2013-02-04 08:24:00,40.3,38.1,30.18,ENE,66,0.0,0.0,92,0.00,,,0.00,meteohub,2013-02-04 16:24:00,
2013-02-04 08:29:00,40.8,38.7,30.18,ENE,66,0.0,0.0,92,0.00,,,0.00,meteohub,2013-02-04 16:29:00,
2013-02-04 08:34:00,41.2,38.8,30.18,ENE,66,1.0,0.0,91,0.00,,,0.00,meteohub,2013-02-04 16:34:00,
2013-02-04 08:39:00,41.7,39.2,30.18,ENE,66,0.0,2.0,91,0.00,,,0.00,meteohub,2013-02-04 16:39:00,
2013-02-04 08:44:00,42.4,39.7,30.18,ENE,66,0.0,2.0,90,0.00,,,0.00,meteohub,2013-02-04 16:44:00,
2013-02-04 08:49:00,43.2,40.6,30.18,ENE,66,1.0,2.0,91,0.00,,,0.00,meteohub,2013-02-04 16:49:00,
2013-02-04 08:54:00,44.2,41.5,30.18,ENE,66,1.0,2.0,90,0.00,,,0.00,meteohub,2013-02-04 16:54:00,
2013-02-04 08:59:00,44.4,41.2,30.18,ENE,66,0.0,2.0,88,0.00,,,0.00,meteohub,2013-02-04 16:59:00,
2013-02-04 09:04:00,45.5,42.1,30.18,ENE,66,0.0,2.0,88,0.00,,,0.00,meteohub,2013-02-04 17:04:00,
2013-02-04 09:09:00,46.2,42.6,30.18,ENE,66,0.0,2.0,87,0.00,,,0.00,meteohub,2013-02-04 17:09:00,
2013-02-04 09:14:00,46.8,42.3,30.18,ENE,66,0.0,1.0,84,0.00,,,0.00,meteohub,2013-02-04 17:14:00,
2013-02-04 09:19:00,48.0,42.1,30.18,ENE,66,0.0,1.0,80,0.00,,,0.00,meteohub,2013-02-04 17:19:00,
2013-02-04 09:24:00,49.5,41.9,30.18,ENE,66,0.0,1.0,75,0.00,,,0.00,meteohub,2013-02-04 17:24:00,
2013-02-04 09:29:00,50.5,41.2,30.18,ENE,66,0.0,1.0,70,0.00,,,0.00,meteohub,2013-02-04 17:29:00,
2013-02-04 09:34:00,50.7,41.7,30.18,ENE,66,1.0,1.0,71,0.00,,,0.00,meteohub,2013-02-04 17:34:00,
2013-02-04 09:39:00,52.0,42.1,30.19,ENE,66,1.0,3.0,69,0.00,,,0.00,meteohub,2013-02-04 17:39:00,
2013-02-04 09:44:00,52.3,42.4,30.19,ENE,66,1.0,3.0,69,0.00,,,0.00,meteohub,2013-02-04 17:44:00,
2013-02-04 09:49:00,52.7,42.4,30.19,ENE,66,0.0,3.0,68,0.00,,,0.00,meteohub,2013-02-04 17:49:00,
2013-02-04 09:54:00,52.9,42.3,30.19,ENE,66,0.0,3.0,67,0.00,,,0.00,meteohub,2013-02-04 17:54:00,
2013-02-04 10:00:00,53.4,41.9,30.19,ENE,66,2.0,2.0,65,0.00,,,0.00,meteohub,2013-02-04 18:00:00,
2013-02-04 10:04:00,53.8,41.9,30.19,ENE,66,0.0,3.0,64,0.00,,,0.00,meteohub,2013-02-04 18:04:00,
2013-02-04 10:09:00,54.1,41.9,30.19,ENE,66,1.0,3.0,63,0.00,,,0.00,meteohub,2013-02-04 18:09:00,
2013-02-04 10:14:00,54.7,41.5,30.19,ENE,66,0.0,3.0,61,0.00,,,0.00,meteohub,2013-02-04 18:14:00,
2013-02-04 10:19:00,54.3,42.4,30.19,ENE,66,0.0,2.0,64,0.00,,,0.00,meteohub,2013-02-04 18:19:00,
2013-02-04 10:25:00,54.5,41.4,30.19,ENE,66,2.0,2.0,61,0.00,,,0.00,meteohub,2013-02-04 18:25:00,
2013-02-04 10:30:00,55.2,40.3,30.19,ENE,66,3.0,3.0,57,0.00,,,0.00,meteohub,2013-02-04 18:30:00,
2013-02-04 10:35:00,55.4,42.3,30.19,ENE,66,0.0,4.0,61,0.00,,,0.00,meteohub,2013-02-04 18:35:00,
2013-02-04 10:40:00,56.5,39.0,30.19,ENE,66,2.0,4.0,52,0.00,,,0.00,meteohub,2013-02-04 18:40:00,
2013-02-04 10:45:00,56.5,38.7,30.19,ENE,66,2.0,4.0,51,0.00,,,0.00,meteohub,2013-02-04 18:45:00,
2013-02-04 10:50:00,56.5,40.5,30.19,ENE,66,2.0,3.0,55,0.00,,,0.00,meteohub,2013-02-04 18:50:00,
2013-02-04 10:55:00,56.3,43.0,30.18,ENE,66,0.0,3.0,61,0.00,,,0.00,meteohub,2013-02-04 18:55:00,
2013-02-04 11:00:00,56.7,43.3,30.18,ENE,66,0.0,3.0,61,0.00,,,0.00,meteohub,2013-02-04 19:00:00,
2013-02-04 11:05:00,56.1,41.9,30.18,ENE,66,0.0,3.0,59,0.00,,,0.00,meteohub,2013-02-04 19:05:00,
2013-02-04 11:10:00,56.7,43.3,30.18,ENE,66,0.0,2.0,61,0.00,,,0.00,meteohub,2013-02-04 19:10:00,
2013-02-04 11:15:00,57.9,46.6,30.18,SW,214,2.0,2.0,66,0.00,,,0.00,meteohub,2013-02-04 19:15:00,
2013-02-04 11:20:00,57.7,47.7,30.17,SSW,204,4.0,4.0,69,0.00,,,0.00,meteohub,2013-02-04 19:20:00,
2013-02-04 11:25:00,57.7,47.7,30.17,SW,217,4.0,5.0,69,0.00,,,0.00,meteohub,2013-02-04 19:25:00,
2013-02-04 11:30:00,57.9,46.6,30.17,South,187,3.0,7.0,66,0.00,,,0.00,meteohub,2013-02-04 19:30:00,
2013-02-04 11:35:00,58.3,46.6,30.18,SSW,195,3.0,7.0,65,0.00,,,0.00,meteohub,2013-02-04 19:35:00,
2013-02-04 11:40:00,58.5,47.5,30.17,SSW,193,4.0,7.0,67,0.00,,,0.00,meteohub,2013-02-04 19:40:00,
2013-02-04 11:45:00,58.3,46.6,30.17,SSW,200,5.0,5.0,65,0.00,,,0.00,meteohub,2013-02-04 19:45:00,
2013-02-04 11:50:00,58.3,48.6,30.17,South,176,3.0,6.0,70,0.00,,,0.00,meteohub,2013-02-04 19:50:00,
2013-02-04 11:55:00,58.3,48.2,30.17,SW,220,2.0,6.0,69,0.00,,,0.00,meteohub,2013-02-04 19:55:00,
2013-02-04 12:00:00,57.9,47.8,30.17,South,173,2.0,6.0,69,0.00,,,0.00,meteohub,2013-02-04 20:00:00,
2013-02-04 12:05:00,57.9,47.8,30.16,South,188,4.0,6.0,69,0.00,,,0.00,meteohub,2013-02-04 20:05:00,
2013-02-04 12:10:00,57.7,47.3,30.16,SSW,207,4.0,6.0,68,0.00,,,0.00,meteohub,2013-02-04 20:10:00,
2013-02-04 12:15:00,57.9,47.5,30.16,South,189,3.0,6.0,68,0.00,,,0.00,meteohub,2013-02-04 20:15:00,
2013-02-04 12:20:00,58.3,47.3,30.15,SSW,211,3.0,6.0,67,0.00,,,0.00,meteohub,2013-02-04 20:20:00,
2013-02-04 12:25:00,58.5,46.8,30.15,SSW,206,2.0,6.0,65,0.00,,,0.00,meteohub,2013-02-04 20:25:00,
2013-02-04 12:30:00,58.5,46.4,30.15,SSW,192,2.0,5.0,64,0.00,,,0.00,meteohub,2013-02-04 20:30:00,
2013-02-04 12:35:00,58.5,46.8,30.15,South,185,4.0,6.0,65,0.00,,,0.00,meteohub,2013-02-04 20:35:00,
2013-02-04 12:40:00,57.9,47.5,30.15,SW,214,5.0,7.0,68,0.00,,,0.00,meteohub,2013-02-04 20:40:00,
2013-02-04 12:45:00,57.0,47.7,30.15,SW,223,7.0,7.0,71,0.00,,,0.00,meteohub,2013-02-04 20:45:00,
2013-02-04 12:50:00,56.3,47.5,30.15,SSW,199,5.0,7.0,72,0.00,,,0.00,meteohub,2013-02-04 20:50:00,
2013-02-04 12:55:00,56.7,48.0,30.14,South,179,4.0,8.0,73,0.00,,,0.00,meteohub,2013-02-04 20:55:00,
2013-02-04 13:00:00,56.8,47.1,30.14,SSW,200,5.0,8.0,70,0.00,,,0.00,meteohub,2013-02-04 21:00:00,
2013-02-04 13:05:00,57.0,45.9,30.14,SSW,208,7.0,8.0,66,0.00,,,0.00,meteohub,2013-02-04 21:05:00,
2013-02-04 13:10:00,56.7,46.2,30.14,SSW,211,6.0,8.0,68,0.00,,,0.00,meteohub,2013-02-04 21:10:00,
2013-02-04 13:15:00,56.7,45.9,30.14,SSW,200,7.0,8.0,67,0.00,,,0.00,meteohub,2013-02-04 21:15:00,
2013-02-04 13:20:00,56.7,45.9,30.14,SSW,207,6.0,8.0,67,0.00,,,0.00,meteohub,2013-02-04 21:20:00,
2013-02-04 13:25:00,56.1,45.7,30.13,SSW,211,5.0,8.0,68,0.00,,,0.00,meteohub,2013-02-04 21:25:00,
2013-02-04 13:30:00,56.8,45.1,30.13,SSW,213,4.0,8.0,65,0.00,,,0.00,meteohub,2013-02-04 21:30:00,
2013-02-04 13:35:00,56.5,44.4,30.13,SSE,168,6.0,8.0,64,0.00,,,0.00,meteohub,2013-02-04 21:35:00,
2013-02-04 13:40:00,56.3,43.9,30.13,South,189,6.0,8.0,63,0.00,,,0.00,meteohub,2013-02-04 21:40:00,
2013-02-04 13:45:00,56.1,44.1,30.12,SSW,193,4.0,8.0,64,0.00,,,0.00,meteohub,2013-02-04 21:45:00,
2013-02-04 13:50:00,56.1,44.1,30.12,SSW,196,4.0,8.0,64,0.00,,,0.00,meteohub,2013-02-04 21:50:00,
2013-02-04 13:55:00,55.8,45.0,30.12,SSW,202,4.0,7.0,67,0.00,,,0.00,meteohub,2013-02-04 21:55:00,
2013-02-04 14:00:00,55.6,46.4,30.12,South,175,4.0,7.0,71,0.00,,,0.00,meteohub,2013-02-04 22:00:00,
2013-02-04 14:05:00,55.6,46.0,30.11,SSW,192,5.0,7.0,70,0.00,,,0.00,meteohub,2013-02-04 22:05:00,
2013-02-04 14:10:00,55.8,44.2,30.11,South,184,4.0,7.0,65,0.00,,,0.00,meteohub,2013-02-04 22:10:00,
2013-02-04 14:15:00,56.1,44.1,30.11,South,190,5.0,7.0,64,0.00,,,0.00,meteohub,2013-02-04 22:15:00,
2013-02-04 14:20:00,55.9,43.9,30.11,SSW,199,5.0,7.0,64,0.00,,,0.00,meteohub,2013-02-04 22:20:00,
2013-02-04 14:25:00,55.6,45.5,30.11,SSW,196,5.0,6.0,69,0.00,,,0.00,meteohub,2013-02-04 22:25:00,
2013-02-04 14:30:00,55.2,45.1,30.10,South,179,4.0,6.0,69,0.00,,,0.00,meteohub,2013-02-04 22:30:00,
2013-02-04 14:35:00,54.9,45.0,30.10,South,171,4.0,6.0,69,0.00,,,0.00,meteohub,2013-02-04 22:35:00,
2013-02-04 14:40:00,54.7,45.1,30.10,South,190,4.0,6.0,70,0.00,,,0.00,meteohub,2013-02-04 22:40:00,
2013-02-04 14:45:00,54.9,45.3,30.10,SSW,192,2.0,6.0,70,0.00,,,0.00,meteohub,2013-02-04 22:45:00,
2013-02-04 14:50:00,55.6,46.4,30.10,SW,228,5.0,6.0,71,0.00,,,0.00,meteohub,2013-02-04 22:50:00,
2013-02-04 14:55:00,55.4,46.9,30.10,South,180,6.0,7.0,73,0.00,,,0.00,meteohub,2013-02-04 22:55:00,
2013-02-04 15:00:00,55.8,47.3,30.10,SW,215,5.0,7.0,73,0.00,,,0.00,meteohub,2013-02-04 23:00:00,
2013-02-04 15:05:00,55.6,46.8,30.10,SSW,200,3.0,7.0,72,0.00,,,0.00,meteohub,2013-02-04 23:05:00,
2013-02-04 15:10:00,54.7,46.6,30.10,South,188,6.0,7.0,74,0.00,,,0.00,meteohub,2013-02-04 23:10:00,
2013-02-04 15:15:00,54.9,47.1,30.10,South,183,4.0,7.0,75,0.00,,,0.00,meteohub,2013-02-04 23:15:00,
2013-02-04 15:20:00,54.9,46.8,30.10,SSW,200,3.0,7.0,74,0.00,,,0.00,meteohub,2013-02-04 23:20:00,
2013-02-04 15:25:00,54.5,46.8,30.10,South,186,5.0,7.0,75,0.00,,,0.00,meteohub,2013-02-04 23:25:00,
2013-02-04 15:31:00,53.6,46.6,30.10,SSW,193,4.0,7.0,77,0.00,,,0.00,meteohub,2013-02-04 23:31:00,
2013-02-04 15:36:00,53.2,45.9,30.10,SSW,213,4.0,7.0,76,0.00,,,0.00,meteohub,2013-02-04 23:36:00,
2013-02-04 15:41:00,53.1,46.8,30.10,SSW,194,5.0,7.0,79,0.00,,,0.00,meteohub,2013-02-04 23:41:00,
2013-02-04 15:46:00,53.1,46.4,30.10,South,185,4.0,7.0,78,0.00,,,0.00,meteohub,2013-02-04 23:46:00,
2013-02-04 15:51:00,52.9,46.6,30.10,SSW,209,4.0,7.0,79,0.00,,,0.00,meteohub,2013-02-04 23:51:00,
2013-02-04 15:56:00,53.1,46.8,30.10,WSW,240,3.0,6.0,79,0.00,,,0.00,meteohub,2013-02-04 23:56:00,
2013-02-04 16:01:00,53.2,46.6,30.10,WSW,251,5.0,6.0,78,0.00,,,0.00,meteohub,2013-02-05 00:01:00,
2013-02-04 16:06:00,53.6,46.9,30.11,SW,219,2.0,7.0,78,0.00,,,0.00,meteohub,2013-02-05 00:06:00,
2013-02-04 16:11:00,54.0,47.3,30.10,WSW,257,4.0,8.0,78,0.00,,,0.00,meteohub,2013-02-05 00:11:00,
2013-02-04 16:16:00,54.3,47.3,30.10,WSW,243,7.0,8.0,77,0.00,,,0.00,meteohub,2013-02-05 00:16:00,
2013-02-04 16:21:00,55.0,47.7,30.10,WSW,254,5.0,8.0,76,0.00,,,0.00,meteohub,2013-02-05 00:21:00,
2013-02-04 16:26:00,55.4,47.3,30.10,West,265,3.0,7.0,74,0.00,,,0.00,meteohub,2013-02-05 00:26:00,
2013-02-04 16:31:00,55.6,47.5,30.10,WSW,258,4.0,7.0,74,0.00,,,0.00,meteohub,2013-02-05 00:31:00,
2013-02-04 16:36:00,55.6,47.1,30.09,SW,235,1.0,7.0,73,0.00,,,0.00,meteohub,2013-02-05 00:36:00,
2013-02-04 16:41:00,55.4,46.9,30.09,SW,231,4.0,7.0,73,0.00,,,0.00,meteohub,2013-02-05 00:41:00,
2013-02-04 16:46:00,55.2,47.1,30.09,WSW,240,2.0,7.0,74,0.00,,,0.00,meteohub,2013-02-05 00:46:00,
2013-02-04 16:51:00,55.2,47.1,30.09,SW,214,4.0,7.0,74,0.00,,,0.00,meteohub,2013-02-05 00:51:00,
2013-02-04 16:56:00,54.7,46.9,30.09,SSW,210,3.0,6.0,75,0.00,,,0.00,meteohub,2013-02-05 00:56:00,
2013-02-04 17:01:00,54.0,46.9,30.09,SW,234,4.0,6.0,77,0.00,,,0.00,meteohub,2013-02-05 01:01:00,
2013-02-04 17:06:00,53.4,46.0,30.09,SW,229,4.0,7.0,76,0.00,,,0.00,meteohub,2013-02-05 01:06:00,
2013-02-04 17:11:00,53.1,46.0,30.09,SSW,206,3.0,7.0,77,0.00,,,0.00,meteohub,2013-02-05 01:11:00,
2013-02-04 17:16:00,52.7,45.7,30.09,SW,225,3.0,7.0,77,0.00,,,0.00,meteohub,2013-02-05 01:16:00,
2013-02-04 17:21:00,52.5,44.8,30.09,SSW,202,3.0,5.0,75,0.00,,,0.00,meteohub,2013-02-05 01:21:00,
2013-02-04 17:26:00,52.5,44.1,30.09,SW,218,1.0,5.0,73,0.00,,,0.00,meteohub,2013-02-05 01:26:00,
2013-02-04 17:31:00,52.3,43.2,30.09,SW,218,2.0,5.0,71,0.00,,,0.00,meteohub,2013-02-05 01:31:00,
2013-02-04 17:36:00,52.2,43.0,30.09,South,190,2.0,4.0,71,0.00,,,0.00,meteohub,2013-02-05 01:36:00,
2013-02-04 17:41:00,52.0,43.5,30.09,South,190,3.0,4.0,73,0.00,,,0.00,meteohub,2013-02-05 01:41:00,
2013-02-04 17:46:00,51.6,43.9,30.08,South,190,1.0,4.0,75,0.00,,,0.00,meteohub,2013-02-05 01:46:00,
2013-02-04 17:51:00,51.4,44.8,30.09,South,190,2.0,4.0,78,0.00,,,0.00,meteohub,2013-02-05 01:51:00,
2013-02-04 17:56:00,51.3,45.0,30.08,South,190,1.0,4.0,79,0.00,,,0.00,meteohub,2013-02-05 01:56:00,
2013-02-04 18:01:00,51.1,44.8,30.09,South,190,2.0,4.0,79,0.00,,,0.00,meteohub,2013-02-05 02:01:00,
2013-02-04 18:06:00,51.1,44.4,30.09,SSW,196,3.0,5.0,78,0.00,,,0.00,meteohub,2013-02-05 02:06:00,
2013-02-04 18:11:00,50.7,45.1,30.09,SSW,204,2.0,5.0,81,0.00,,,0.00,meteohub,2013-02-05 02:11:00,
2013-02-04 18:16:00,50.4,45.1,30.09,SSW,204,2.0,5.0,82,0.00,,,0.00,meteohub,2013-02-05 02:16:00,
2013-02-04 18:21:00,49.8,44.8,30.09,SSW,204,0.0,4.0,83,0.00,,,0.00,meteohub,2013-02-05 02:21:00,
2013-02-04 18:26:00,49.5,45.1,30.09,SSW,204,2.0,4.0,85,0.00,,,0.00,meteohub,2013-02-05 02:26:00,
2013-02-04 18:31:00,49.5,45.1,30.09,SSW,204,1.0,3.0,85,0.00,,,0.00,meteohub,2013-02-05 02:31:00,
2013-02-04 18:36:00,49.6,45.0,30.09,SSW,204,3.0,3.0,84,0.00,,,0.00,meteohub,2013-02-05 02:36:00,
2013-02-04 18:41:00,49.8,44.8,30.09,SSW,202,3.0,4.0,83,0.00,,,0.00,meteohub,2013-02-05 02:41:00,
2013-02-04 18:46:00,50.0,44.8,30.09,SSW,207,3.0,4.0,82,0.00,,,0.00,meteohub,2013-02-05 02:46:00,
2013-02-04 18:51:00,50.0,45.0,30.09,SSW,211,2.0,4.0,83,0.00,,,0.00,meteohub,2013-02-05 02:51:00,
2013-02-04 18:56:00,49.6,45.0,30.09,SSW,200,2.0,4.0,84,0.00,,,0.00,meteohub,2013-02-05 02:56:00,
2013-02-04 19:01:00,49.6,45.3,30.09,SSW,200,3.0,3.0,85,0.00,,,0.00,meteohub,2013-02-05 03:01:00,
2013-02-04 19:06:00,49.3,45.0,30.09,SSW,200,2.0,4.0,85,0.00,,,0.00,meteohub,2013-02-05 03:06:00,
2013-02-04 19:11:00,49.1,45.1,30.09,SSW,200,3.0,4.0,86,0.00,,,0.00,meteohub,2013-02-05 03:11:00,
2013-02-04 19:16:00,48.9,45.0,30.09,SSW,207,3.0,4.0,86,0.00,,,0.00,meteohub,2013-02-05 03:16:00,
2013-02-04 19:21:00,48.9,45.0,30.09,SSW,211,2.0,4.0,86,0.00,,,0.00,meteohub,2013-02-05 03:21:00,
2013-02-04 19:26:00,48.9,45.1,30.09,SW,228,3.0,4.0,87,0.00,,,0.00,meteohub,2013-02-05 03:26:00,
2013-02-04 19:31:00,48.9,45.1,30.09,SSW,208,2.0,5.0,87,0.00,,,0.00,meteohub,2013-02-05 03:31:00,
2013-02-04 19:36:00,48.9,45.1,30.09,SSW,208,2.0,5.0,87,0.00,,,0.00,meteohub,2013-02-05 03:36:00,
2013-02-04 19:41:00,48.7,45.3,30.09,SSW,207,3.0,5.0,88,0.00,,,0.00,meteohub,2013-02-05 03:41:00,
2013-02-04 19:46:00,48.7,45.3,30.09,SW,217,3.0,6.0,88,0.00,,,0.00,meteohub,2013-02-05 03:46:00,
2013-02-04 19:51:00,48.6,44.8,30.09,SSW,202,2.0,6.0,87,0.00,,,0.00,meteohub,2013-02-05 03:51:00,
2013-02-04 19:56:00,48.0,44.6,30.09,SSW,213,2.0,6.0,88,0.00,,,0.00,meteohub,2013-02-05 03:56:00,
2013-02-04 20:01:00,48.0,44.4,30.09,South,188,3.0,6.0,87,0.00,,,0.00,meteohub,2013-02-05 04:01:00,
2013-02-04 20:06:00,48.0,44.4,30.09,SSW,203,3.0,6.0,87,0.00,,,0.00,meteohub,2013-02-05 04:06:00,
2013-02-04 20:11:00,48.0,44.4,30.08,SSW,198,2.0,6.0,87,0.00,,,0.00,meteohub,2013-02-05 04:11:00,
2013-02-04 20:16:00,48.0,44.4,30.09,SSW,198,3.0,4.0,87,0.00,,,0.00,meteohub,2013-02-05 04:16:00,
2013-02-04 20:21:00,48.2,44.6,30.09,SSW,197,2.0,4.0,87,0.00,,,0.00,meteohub,2013-02-05 04:21:00,
2013-02-04 20:26:00,48.6,44.8,30.08,SSW,192,3.0,4.0,87,0.00,,,0.00,meteohub,2013-02-05 04:26:00,
2013-02-04 20:31:00,48.7,44.8,30.08,SSW,192,2.0,4.0,86,0.00,,,0.00,meteohub,2013-02-05 04:31:00,
2013-02-04 20:36:00,48.7,44.8,30.08,South,177,2.0,4.0,86,0.00,,,0.00,meteohub,2013-02-05 04:36:00,
2013-02-04 20:41:00,49.1,44.8,30.08,South,177,2.0,4.0,85,0.00,,,0.00,meteohub,2013-02-05 04:41:00,
2013-02-04 20:46:00,49.1,44.8,30.08,South,177,2.0,4.0,85,0.00,,,0.00,meteohub,2013-02-05 04:46:00,
2013-02-04 20:51:00,48.7,44.8,30.09,South,177,3.0,4.0,86,0.00,,,0.00,meteohub,2013-02-05 04:51:00,
2013-02-04 20:57:00,48.2,43.9,30.09,South,177,2.0,4.0,85,0.00,,,0.00,meteohub,2013-02-05 04:57:00,
2013-02-04 21:00:00,47.7,44.1,30.09,South,177,2.0,4.0,87,0.00,,,0.00,meteohub,2013-02-05 05:00:00,
2013-02-04 21:01:00,47.1,43.7,30.09,South,177,2.0,4.0,88,0.00,,,0.00,meteohub,2013-02-05 05:01:00,
2013-02-04 21:06:00,46.8,44.1,30.09,South,177,2.0,4.0,90,0.00,,,0.00,meteohub,2013-02-05 05:06:00,
2013-02-04 21:11:00,46.8,44.2,30.09,South,177,3.0,5.0,91,0.00,,,0.00,meteohub,2013-02-05 05:11:00,
2013-02-04 21:16:00,46.8,44.1,30.09,South,177,2.0,5.0,90,0.00,,,0.00,meteohub,2013-02-05 05:16:00,
2013-02-04 21:21:00,46.9,44.2,30.09,South,177,1.0,5.0,90,0.00,,,0.00,meteohub,2013-02-05 05:21:00,
2013-02-04 21:26:00,46.9,43.9,30.09,South,177,3.0,4.0,89,0.00,,,0.00,meteohub,2013-02-05 05:26:00,
2013-02-04 21:32:00,47.1,43.5,30.09,South,177,2.0,4.0,87,0.00,,,0.00,meteohub,2013-02-05 05:32:00,
2013-02-04 21:37:00,46.8,43.7,30.09,South,180,4.0,4.0,89,0.00,,,0.00,meteohub,2013-02-05 05:37:00,
2013-02-04 21:42:00,46.0,43.3,30.09,South,172,3.0,4.0,90,0.00,,,0.00,meteohub,2013-02-05 05:42:00,
2013-02-04 21:47:00,45.9,43.7,30.09,South,181,3.0,5.0,92,0.00,,,0.00,meteohub,2013-02-05 05:47:00,
2013-02-04 21:52:00,45.7,43.5,30.09,South,174,4.0,5.0,92,0.00,,,0.00,meteohub,2013-02-05 05:52:00,
2013-02-04 21:57:00,45.0,43.0,30.09,South,188,3.0,5.0,93,0.00,,,0.00,meteohub,2013-02-05 05:57:00,
2013-02-04 22:02:00,44.8,43.2,30.09,South,185,5.0,6.0,94,0.00,,,0.00,meteohub,2013-02-05 06:02:00,
2013-02-04 22:07:00,45.0,43.7,30.09,South,180,3.0,6.0,95,0.00,,,0.00,meteohub,2013-02-05 06:07:00,
2013-02-04 22:12:00,44.8,43.5,30.09,South,182,2.0,6.0,95,0.00,,,0.00,meteohub,2013-02-05 06:12:00,
2013-02-04 22:17:00,44.8,43.5,30.09,South,170,4.0,5.0,95,0.00,,,0.00,meteohub,2013-02-05 06:17:00,
2013-02-04 22:22:00,44.8,43.5,30.09,South,184,4.0,5.0,95,0.00,,,0.00,meteohub,2013-02-05 06:22:00,
2013-02-04 22:27:00,44.4,43.2,30.09,South,176,4.0,6.0,95,0.00,,,0.00,meteohub,2013-02-05 06:27:00,
2013-02-04 22:32:00,44.2,43.0,30.09,South,175,3.0,6.0,95,0.00,,,0.00,meteohub,2013-02-05 06:32:00,
2013-02-04 22:37:00,44.1,42.8,30.09,South,175,3.0,6.0,95,0.00,,,0.00,meteohub,2013-02-05 06:37:00,
2013-02-04 22:42:00,43.9,42.8,30.09,SW,217,3.0,5.0,96,0.00,,,0.00,meteohub,2013-02-05 06:42:00,
2013-02-04 22:47:00,43.9,42.8,30.09,South,179,3.0,4.0,96,0.00,,,0.00,meteohub,2013-02-05 06:47:00,
2013-02-04 22:52:00,44.1,43.3,30.09,South,179,2.0,4.0,97,0.00,,,0.00,meteohub,2013-02-05 06:52:00,
2013-02-04 22:57:00,44.2,43.5,30.09,South,179,3.0,4.0,97,0.00,,,0.00,meteohub,2013-02-05 06:57:00,
2013-02-04 23:02:00,44.2,43.2,30.09,South,179,2.0,4.0,96,0.00,,,0.00,meteohub,2013-02-05 07:02:00,
2013-02-04 23:07:00,44.1,43.0,30.09,South,183,3.0,4.0,96,0.00,,,0.00,meteohub,2013-02-05 07:07:00,
2013-02-04 23:12:00,44.2,43.2,30.09,South,171,2.0,4.0,96,0.00,,,0.00,meteohub,2013-02-05 07:12:00,
2013-02-04 23:17:00,44.2,43.2,30.09,South,171,2.0,4.0,96,0.00,,,0.00,meteohub,2013-02-05 07:17:00,
2013-02-04 23:22:00,44.1,43.0,30.09,SSW,196,2.0,5.0,96,0.00,,,0.00,meteohub,2013-02-05 07:22:00,
2013-02-04 23:27:00,44.1,43.0,30.09,South,182,3.0,5.0,96,0.00,,,0.00,meteohub,2013-02-05 07:27:00,
2013-02-04 23:32:00,44.1,43.0,30.09,South,183,1.0,5.0,96,0.00,,,0.00,meteohub,2013-02-05 07:32:00,
2013-02-04 23:37:00,43.9,42.8,30.09,South,183,2.0,4.0,96,0.00,,,0.00,meteohub,2013-02-05 07:37:00,
2013-02-04 23:42:00,43.7,42.6,30.09,South,183,0.0,4.0,96,0.00,,,0.00,meteohub,2013-02-05 07:42:00,
2013-02-04 23:47:00,43.5,42.4,30.09,South,176,3.0,3.0,96,0.00,,,0.00,meteohub,2013-02-05 07:47:00,
2013-02-04 23:52:00,43.5,42.4,30.09,South,176,3.0,4.0,96,0.00,,,0.00,meteohub,2013-02-05 07:52:00,
2013-02-04 23:57:00,44.1,43.0,30.09,South,176,3.0,4.0,96,0.00,,,0.00,meteohub,2013-02-05 07:57:00,